            Unix Timestamp (Second),               UTC_Date_&_Time (none),        Mitteleurop�ische Zeit (none),       Battery (Volt),   Temperature (deg C),  Dissolved Oxygen (mg/l),  Dissolved Oxygen Saturation(%),             Q (none)
                1689934920,           2023-07-21 10:22:00,           2023-07-21 12:22:00,      3.530000,     20.293000,          8.961000,                    99.157691,      0.904000
                1689935520,           2023-07-21 10:32:00,           2023-07-21 12:32:00,      3.530000,     20.134000,          9.052000,                    99.849766,      0.905000
                1689936120,           2023-07-21 10:42:00,           2023-07-21 12:42:00,      3.530000,     20.075000,          8.992000,                    99.071905,      0.905000
                1689936720,           2023-07-21 10:52:00,           2023-07-21 12:52:00,      3.530000,     20.083000,          8.998000,                    99.153752,      0.904000
                1689937320,           2023-07-21 11:02:00,           2023-07-21 13:02:00,      3.530000,     20.092000,          8.992000,                    99.105332,      0.904000
                1689937920,           2023-07-21 11:12:00,           2023-07-21 13:12:00,      3.530000,     20.117000,          9.129000,                   100.665187,      0.904000
                1689938520,           2023-07-21 11:22:00,           2023-07-21 13:22:00,      3.530000,     20.100000,          9.098000,                   100.289527,      0.904000
                1689939120,           2023-07-21 11:32:00,           2023-07-21 13:32:00,      3.530000,     20.092000,          9.139000,                   100.725492,      0.904000
                1689939720,           2023-07-21 11:42:00,           2023-07-21 13:42:00,      3.530000,     20.083000,          9.127000,                   100.575272,      0.904000
                1689940320,           2023-07-21 11:52:00,           2023-07-21 13:52:00,      3.530000,     20.100000,          9.014000,                    99.363574,      0.904000
                1689940920,           2023-07-21 12:02:00,           2023-07-21 14:02:00,      3.530000,     20.117000,          9.082000,                   100.146920,      0.904000
                1689941520,           2023-07-21 12:12:00,           2023-07-21 14:12:00,      3.530000,     20.117000,          9.230000,                   101.778911,      0.905000
                1689942120,           2023-07-21 12:22:00,           2023-07-21 14:22:00,      3.530000,     20.092000,          9.191000,                   101.298610,      0.904000
                1689942720,           2023-07-21 12:32:00,           2023-07-21 14:32:00,      3.530000,     20.075000,          9.320000,                   102.685738,      0.904000
                1689943320,           2023-07-21 12:42:00,           2023-07-21 14:42:00,      3.530000,     20.075000,          9.279000,                   102.234009,      0.904000
                1689943920,           2023-07-21 12:52:00,           2023-07-21 14:52:00,      3.530000,     20.083000,          9.368000,                   103.230979,      0.905000
                1689944520,           2023-07-21 13:02:00,           2023-07-21 15:02:00,      3.530000,     20.075000,          9.238000,                   101.782280,      0.904000
                1689945120,           2023-07-21 13:12:00,           2023-07-21 15:12:00,      3.530000,     20.092000,          9.265000,                   102.114202,      0.904000
                1689945720,           2023-07-21 13:22:00,           2023-07-21 15:22:00,      3.530000,     20.083000,          9.306000,                   102.547768,      0.904000
                1689946320,           2023-07-21 13:32:00,           2023-07-21 15:32:00,      3.530000,     20.075000,          9.271000,                   102.145867,      0.904000
                1689946920,           2023-07-21 13:42:00,           2023-07-21 15:42:00,      3.530000,     20.050000,          9.329000,                   102.733904,      0.904000
                1689947520,           2023-07-21 13:52:00,           2023-07-21 15:52:00,      3.530000,     20.033000,          9.563000,                   105.275243,      0.904000
                1689948120,           2023-07-21 14:02:00,           2023-07-21 16:02:00,      3.520000,     20.025000,          9.529000,                   104.884284,      0.905000
                1689948720,           2023-07-21 14:12:00,           2023-07-21 16:12:00,      3.520000,     20.025000,          9.542000,                   105.027373,      0.903000
                1689949320,           2023-07-21 14:22:00,           2023-07-21 16:22:00,      3.530000,     20.008000,          9.466000,                   104.155673,      0.904000
                1689949920,           2023-07-21 14:32:00,           2023-07-21 16:32:00,      3.530000,     20.016000,          9.476000,                   104.282277,      0.904000
                1689950520,           2023-07-21 14:42:00,           2023-07-21 16:42:00,      3.530000,     20.050000,          9.412000,                   103.647926,      0.904000
                1689951120,           2023-07-21 14:52:00,           2023-07-21 16:52:00,      3.520000,     19.991000,          9.418000,                   103.592524,      0.905000
                1689951720,           2023-07-21 15:02:00,           2023-07-21 17:02:00,      3.520000,     20.000000,          9.385000,                   103.248007,      0.905000
                1689952320,           2023-07-21 15:12:00,           2023-07-21 17:12:00,      3.520000,     20.000000,          9.384000,                   103.237006,      0.904000
                1689952920,           2023-07-21 15:22:00,           2023-07-21 17:22:00,      3.520000,     19.991000,          9.477000,                   104.241490,      0.904000
                1689953520,           2023-07-21 15:32:00,           2023-07-21 17:32:00,      3.520000,     19.983000,          9.398000,                   103.356102,      0.903000
                1689954120,           2023-07-21 15:42:00,           2023-07-21 17:42:00,      3.520000,     19.991000,          9.295000,                   102.239596,      0.904000
                1689954720,           2023-07-21 15:52:00,           2023-07-21 17:52:00,      3.520000,     20.008000,          9.332000,                   102.681253,      0.904000
                1689955320,           2023-07-21 16:02:00,           2023-07-21 18:02:00,      3.520000,     19.983000,          9.302000,                   102.300326,      0.904000
                1689955920,           2023-07-21 16:12:00,           2023-07-21 18:12:00,      3.520000,     19.991000,          9.167000,                   100.831670,      0.903000
                1689956520,           2023-07-21 16:22:00,           2023-07-21 18:22:00,      3.520000,     20.016000,          8.905000,                    97.998488,      0.904000
                1689957120,           2023-07-21 16:32:00,           2023-07-21 18:32:00,      3.520000,     20.008000,          8.944000,                    98.412037,      0.904000
                1689957720,           2023-07-21 16:42:00,           2023-07-21 18:42:00,      3.520000,     20.016000,          8.899000,                    97.932459,      0.904000
                1689958320,           2023-07-21 16:52:00,           2023-07-21 18:52:00,      3.520000,     19.974000,          8.987000,                    98.818380,      0.903000
                1689958920,           2023-07-21 17:02:00,           2023-07-21 19:02:00,      3.520000,     19.983000,          9.016000,                    99.154992,      0.904000
                1689959520,           2023-07-21 17:12:00,           2023-07-21 19:12:00,      3.520000,     19.983000,          8.822000,                    97.021444,      0.904000
                1689960120,           2023-07-21 17:22:00,           2023-07-21 19:22:00,      3.520000,     19.949000,          8.987000,                    98.769275,      0.904000
                1689960720,           2023-07-21 17:32:00,           2023-07-21 19:32:00,      3.520000,     19.933000,          8.943000,                    98.254433,      0.904000
                1689961320,           2023-07-21 17:42:00,           2023-07-21 19:42:00,      3.520000,     19.991000,          8.775000,                    96.519898,      0.904000
                1689961920,           2023-07-21 17:52:00,           2023-07-21 19:52:00,      3.520000,     20.000000,          8.701000,                    95.723059,      0.904000
                1689962520,           2023-07-21 18:02:00,           2023-07-21 20:02:00,      3.520000,     19.991000,          8.829000,                    97.113867,      0.904000
                1689963120,           2023-07-21 18:12:00,           2023-07-21 20:12:00,      3.520000,     20.025000,          8.807000,                    96.937338,      0.904000
                1689963720,           2023-07-21 18:22:00,           2023-07-21 20:22:00,      3.520000,     20.025000,          9.143000,                   100.635640,      0.904000
                1689964320,           2023-07-21 18:32:00,           2023-07-21 20:32:00,      3.520000,     20.000000,          9.412000,                   103.545044,      0.903000
                1689964920,           2023-07-21 18:42:00,           2023-07-21 20:42:00,      3.520000,     19.991000,          9.617000,                   105.781409,      0.904000
                1689965520,           2023-07-21 18:52:00,           2023-07-21 20:52:00,      3.520000,     19.974000,          9.636000,                   105.954592,      0.904000
                1689966120,           2023-07-21 19:02:00,           2023-07-21 21:02:00,      3.520000,     19.958000,          9.550000,                   104.975564,      0.904000
                1689966720,           2023-07-21 19:12:00,           2023-07-21 21:12:00,      3.520000,     19.966000,          9.688000,                   106.509428,      0.904000
                1689967320,           2023-07-21 19:22:00,           2023-07-21 21:22:00,      3.520000,     19.966000,          9.319000,                   102.452659,      0.903000
                1689967920,           2023-07-21 19:32:00,           2023-07-21 21:32:00,      3.520000,     19.949000,          9.254000,                   101.703669,      0.904000
                1689968520,           2023-07-21 19:42:00,           2023-07-21 21:42:00,      3.520000,     19.949000,          9.244000,                   101.593766,      0.904000
                1689969120,           2023-07-21 19:52:00,           2023-07-21 21:52:00,      3.520000,     19.916000,          9.369000,                   102.899979,      0.903000
                1689969720,           2023-07-21 20:02:00,           2023-07-21 22:02:00,      3.520000,     19.949000,          9.159000,                   100.659596,      0.903000
                1689970320,           2023-07-21 20:12:00,           2023-07-21 22:12:00,      3.520000,     19.941000,          9.054000,                    99.489791,      0.904000
                1689970920,           2023-07-21 20:22:00,           2023-07-21 22:22:00,      3.520000,     19.907000,          9.185000,                   100.861038,      0.904000
                1689971520,           2023-07-21 20:32:00,           2023-07-21 22:32:00,      3.520000,     19.916000,          9.130000,                   100.275036,      0.903000
                1689972120,           2023-07-21 20:42:00,           2023-07-21 22:42:00,      3.520000,     19.916000,          9.213000,                   101.186627,      0.903000
                1689972720,           2023-07-21 20:52:00,           2023-07-21 22:52:00,      3.520000,     19.891000,          9.212000,                   101.125320,      0.904000
                1689973320,           2023-07-21 21:02:00,           2023-07-21 23:02:00,      3.520000,     19.891000,          9.134000,                   100.269070,      0.903000
                1689973920,           2023-07-21 21:12:00,           2023-07-21 23:12:00,      3.520000,     19.891000,          9.150000,                   100.444711,      0.903000
                1689974520,           2023-07-21 21:22:00,           2023-07-21 23:22:00,      3.520000,     19.882000,          9.153000,                   100.459645,      0.903000
                1689975120,           2023-07-21 21:32:00,           2023-07-21 23:32:00,      3.520000,     19.840000,          9.228000,                   101.198138,      0.903000
                1689975720,           2023-07-21 21:42:00,           2023-07-21 23:42:00,      3.520000,     19.865000,          9.144000,                   100.326901,      0.903000
                1689976320,           2023-07-21 21:52:00,           2023-07-21 23:52:00,      3.520000,     19.832000,          9.175000,                   100.600884,      0.903000
                1689976920,           2023-07-21 22:02:00,           2023-07-22 00:02:00,      3.520000,     19.840000,          9.275000,                   101.713560,      0.904000
                1689977520,           2023-07-21 22:12:00,           2023-07-22 00:12:00,      3.520000,     19.832000,          9.247000,                   101.390340,      0.904000
                1689978120,           2023-07-21 22:22:00,           2023-07-22 00:22:00,      3.520000,     19.807000,          9.219000,                   101.032984,      0.903000
                1689978720,           2023-07-21 22:32:00,           2023-07-22 00:32:00,      3.520000,     19.765000,          9.220000,                   100.959366,      0.904000
                1689979320,           2023-07-21 22:42:00,           2023-07-22 00:42:00,      3.520000,     19.757000,          9.199000,                   100.713343,      0.904000
                1689979920,           2023-07-21 22:52:00,           2023-07-22 00:52:00,      3.520000,     19.757000,          9.181000,                   100.516274,      0.904000
                1689980520,           2023-07-21 23:02:00,           2023-07-22 01:02:00,      3.520000,     19.757000,          9.154000,                   100.220670,      0.904000
                1689981120,           2023-07-21 23:12:00,           2023-07-22 01:12:00,      3.520000,     19.748000,          9.111000,                    99.731986,      0.903000
                1689981720,           2023-07-21 23:22:00,           2023-07-22 01:22:00,      3.520000,     19.740000,          9.095000,                    99.540956,      0.904000
                1689982320,           2023-07-21 23:32:00,           2023-07-22 01:32:00,      3.520000,     19.765000,          9.077000,                    99.393510,      0.903000
                1689982920,           2023-07-21 23:42:00,           2023-07-22 01:42:00,      3.520000,     19.757000,          9.006000,                    98.600322,      0.904000
                1689983520,           2023-07-21 23:52:00,           2023-07-22 01:52:00,      3.520000,     19.731000,          9.018000,                    98.680500,      0.903000
                1689984120,           2023-07-22 00:02:00,           2023-07-22 02:02:00,      3.520000,     19.765000,          8.951000,                    98.013805,      0.903000
                1689984720,           2023-07-22 00:12:00,           2023-07-22 02:12:00,      3.520000,     19.731000,          8.938000,                    97.805091,      0.904000
                1689985320,           2023-07-22 00:22:00,           2023-07-22 02:22:00,      3.520000,     19.740000,          8.880000,                    97.187871,      0.904000
                1689985920,           2023-07-22 00:32:00,           2023-07-22 02:32:00,      3.520000,     19.723000,          8.861000,                    96.947030,      0.903000
                1689986520,           2023-07-22 00:42:00,           2023-07-22 02:42:00,      3.520000,     19.723000,          8.836000,                    96.673509,      0.903000
                1689987120,           2023-07-22 00:52:00,           2023-07-22 02:52:00,      3.520000,     19.706000,          8.826000,                    96.531338,      0.904000
                1689987720,           2023-07-22 01:02:00,           2023-07-22 03:02:00,      3.520000,     19.689000,          8.792000,                    96.126842,      0.904000
                1689988320,           2023-07-22 01:12:00,           2023-07-22 03:12:00,      3.520000,     19.681000,          8.737000,                    95.510242,      0.903000
                1689988920,           2023-07-22 01:22:00,           2023-07-22 03:22:00,      3.520000,     19.648000,          8.716000,                    95.217885,      0.903000
                1689989520,           2023-07-22 01:32:00,           2023-07-22 03:32:00,      3.520000,     19.656000,          8.641000,                    94.413639,      0.904000
                1689990120,           2023-07-22 01:42:00,           2023-07-22 03:42:00,      3.520000,     19.639000,          8.561000,                    93.507770,      0.903000
                1689990720,           2023-07-22 01:52:00,           2023-07-22 03:52:00,      3.520000,     19.639000,          8.529000,                    93.158249,      0.903000
                1689991320,           2023-07-22 02:02:00,           2023-07-22 04:02:00,      3.520000,     19.631000,          8.466000,                    92.455346,      0.903000
                1689991920,           2023-07-22 02:12:00,           2023-07-22 04:12:00,      3.520000,     19.631000,          8.484000,                    92.651920,      0.903000
                1689992520,           2023-07-22 02:22:00,           2023-07-22 04:22:00,      3.520000,     19.639000,          8.422000,                    91.989538,      0.904000
                1689993120,           2023-07-22 02:32:00,           2023-07-22 04:32:00,      3.520000,     19.631000,          8.395000,                    91.679970,      0.903000
                1689993720,           2023-07-22 02:42:00,           2023-07-22 04:42:00,      3.520000,     19.606000,          8.401000,                    91.699653,      0.905000
                1689994320,           2023-07-22 02:52:00,           2023-07-22 04:52:00,      3.520000,     19.614000,          8.357000,                    91.233971,      0.904000
                1689994920,           2023-07-22 03:02:00,           2023-07-22 05:02:00,      3.520000,     19.622000,          8.319000,                    90.833648,      0.903000
                1689995520,           2023-07-22 03:12:00,           2023-07-22 05:12:00,      3.520000,     19.580000,          8.333000,                    90.910127,      0.903000
                1689996120,           2023-07-22 03:22:00,           2023-07-22 05:22:00,      3.520000,     19.572000,          8.341000,                    90.982842,      0.904000
                1689996720,           2023-07-22 03:32:00,           2023-07-22 05:32:00,      3.520000,     19.555000,          8.383000,                    91.409875,      0.904000
                1689997320,           2023-07-22 03:42:00,           2023-07-22 05:42:00,      3.520000,     19.572000,          8.394000,                    91.560961,      0.903000
                1689997920,           2023-07-22 03:52:00,           2023-07-22 05:52:00,      3.520000,     19.597000,          8.396000,                    91.628585,      0.903000
                1689998520,           2023-07-22 04:02:00,           2023-07-22 06:02:00,      3.520000,     19.547000,          8.469000,                    92.332852,      0.903000
                1689999120,           2023-07-22 04:12:00,           2023-07-22 06:12:00,      3.520000,     19.538000,          8.514000,                    92.806742,      0.903000
                1689999720,           2023-07-22 04:22:00,           2023-07-22 06:22:00,      3.520000,     19.522000,          8.564000,                    93.321869,      0.904000
                1690000320,           2023-07-22 04:32:00,           2023-07-22 06:32:00,      3.520000,     19.505000,          8.636000,                    94.074422,      0.904000
                1690000920,           2023-07-22 04:42:00,           2023-07-22 06:42:00,      3.520000,     19.480000,          8.681000,                    94.517274,      0.903000
                1690001520,           2023-07-22 04:52:00,           2023-07-22 06:52:00,      3.520000,     19.471000,          8.732000,                    95.055410,      0.904000
                1690002120,           2023-07-22 05:02:00,           2023-07-22 07:02:00,      3.520000,     19.455000,          8.765000,                    95.384053,      0.905000
                1690002720,           2023-07-22 05:12:00,           2023-07-22 07:12:00,      3.520000,     19.387000,          8.782000,                    95.438811,      0.903000
                1690003320,           2023-07-22 05:22:00,           2023-07-22 07:22:00,      3.520000,     19.379000,          8.774000,                    95.336564,      0.903000
                1690003920,           2023-07-22 05:32:00,           2023-07-22 07:32:00,      3.520000,     19.387000,          8.804000,                    95.677897,      0.903000
                1690004520,           2023-07-22 05:42:00,           2023-07-22 07:42:00,      3.520000,     19.371000,          8.781000,                    95.397307,      0.903000
                1690005120,           2023-07-22 05:52:00,           2023-07-22 07:52:00,      3.520000,     19.337000,          8.709000,                    94.550532,      0.904000
                1690005720,           2023-07-22 06:02:00,           2023-07-22 08:02:00,      3.520000,     19.354000,          8.705000,                    94.539371,      0.904000
                1690006320,           2023-07-22 06:12:00,           2023-07-22 08:12:00,      3.520000,     19.362000,          8.724000,                    94.760935,      0.903000
                1690006920,           2023-07-22 06:22:00,           2023-07-22 08:22:00,      3.520000,     19.362000,          8.761000,                    95.162833,      0.904000
                1690007520,           2023-07-22 06:32:00,           2023-07-22 08:32:00,      3.520000,     19.413000,          8.690000,                    94.488269,      0.903000
                1690008120,           2023-07-22 06:42:00,           2023-07-22 08:42:00,      3.520000,     19.421000,          8.622000,                    93.763934,      0.904000
                1690008720,           2023-07-22 06:52:00,           2023-07-22 08:52:00,      3.520000,     19.429000,          8.588000,                    93.409169,      0.904000
                1690009320,           2023-07-22 07:02:00,           2023-07-22 09:02:00,      3.520000,     19.455000,          8.566000,                    93.218459,      0.903000
                1690009920,           2023-07-22 07:12:00,           2023-07-22 09:12:00,      3.520000,     19.438000,          8.553000,                    93.045274,      0.904000
                1690010520,           2023-07-22 07:22:00,           2023-07-22 09:22:00,      3.520000,     19.446000,          8.515000,                    92.646742,      0.904000
                1690011120,           2023-07-22 07:32:00,           2023-07-22 09:32:00,      3.520000,     19.446000,          8.519000,                    92.690264,      0.903000
                1690011720,           2023-07-22 07:42:00,           2023-07-22 09:42:00,      3.520000,     19.497000,          8.422000,                    91.728559,      0.903000